TimeMDT,TemperatureF,Dew PointF,Humidity,Sea Level PressureIn,VisibilityMPH,Wind Direction,Wind SpeedMPH,Gust SpeedMPH,PrecipitationIn,Events,Conditions,WindDirDegrees,DateUTC
12:53 AM,62.1,60.1,93,29.99,10.0,West,4.6,-,N/A,,Scattered Clouds,280,2013-07-14 06:53:00
1:53 AM,61.0,59.0,93,29.99,10.0,WSW,5.8,-,N/A,Fog,Patches of Fog,250,2013-07-14 07:53:00
2:53 AM,60.1,57.0,90,29.98,10.0,SSW,3.5,-,N/A,,Scattered Clouds,200,2013-07-14 08:53:00
3:53 AM,60.1,57.0,90,29.99,10.0,South,4.6,-,N/A,,Partly Cloudy,180,2013-07-14 09:53:00
4:53 AM,62.1,55.0,78,29.98,10.0,WSW,8.1,-,N/A,,Partly Cloudy,240,2013-07-14 10:53:00
5:53 AM,57.9,55.0,90,30.03,10.0,East,6.9,-,N/A,,Scattered Clouds,100,2013-07-14 11:53:00
6:53 AM,62.1,55.0,78,30.06,10.0,South,9.2,-,N/A,,Scattered Clouds,180,2013-07-14 12:53:00
7:53 AM,66.9,54.0,63,30.05,10.0,West,12.7,-,N/A,,Scattered Clouds,270,2013-07-14 13:53:00
8:53 AM,66.9,57.9,73,30.09,10.0,NNW,6.9,-,N/A,,Scattered Clouds,330,2013-07-14 14:53:00
9:53 AM,71.1,57.0,61,30.10,10.0,North,13.8,-,N/A,,Scattered Clouds,10,2013-07-14 15:53:00
10:53 AM,71.1,57.9,63,30.13,10.0,North,13.8,-,N/A,,Mostly Cloudy,10,2013-07-14 16:53:00
11:53 AM,71.1,57.9,63,30.14,10.0,North,10.4,-,N/A,,Mostly Cloudy,360,2013-07-14 17:53:00
12:25 PM,71.6,57.2,60,30.32,10.0,North,15.0,18.4,N/A,,Overcast,360,2013-07-14 18:25:00
12:53 PM,73.9,57.9,57,30.12,10.0,North,11.5,-,N/A,,Overcast,10,2013-07-14 18:53:00
1:53 PM,75.9,57.0,52,30.10,10.0,NNW,12.7,-,N/A,,Scattered Clouds,340,2013-07-14 19:53:00
2:53 PM,78.1,55.9,46,30.08,10.0,North,13.8,18.4,N/A,,Scattered Clouds,350,2013-07-14 20:53:00
3:53 PM,77.0,54.0,45,30.06,10.0,NNE,10.4,-,N/A,,Mostly Cloudy,30,2013-07-14 21:53:00
4:53 PM,77.0,54.0,45,30.04,10.0,NNW,8.1,-,N/A,,Mostly Cloudy,330,2013-07-14 22:53:00
5:53 PM,78.1,55.0,45,30.04,10.0,NNW,8.1,18.4,N/A,,Mostly Cloudy,340,2013-07-14 23:53:00
6:53 PM,75.9,55.0,48,30.04,10.0,NNW,10.4,-,N/A,Thunderstorm,Thunderstorm,340,2013-07-15 00:53:00
7:53 PM,66.0,64.0,93,30.09,10.0,ESE,11.5,-,0.11,Rain-Thunderstorm,Light Thunderstorms and Rain,110,2013-07-15 01:53:00
8:27 PM,66.2,60.8,83,30.28,10.0,SE,4.6,-,0.00,Thunderstorm,Thunderstorm,130,2013-07-15 02:27:00
8:53 PM,66.0,61.0,84,30.09,10.0,SSE,4.6,-,0.00,Thunderstorm,Thunderstorm,150,2013-07-15 02:53:00
9:08 PM,64.4,60.8,88,30.27,10.0,South,3.5,-,N/A,,Mostly Cloudy,170,2013-07-15 03:08:00
9:53 PM,66.0,62.1,87,30.10,10.0,South,4.6,-,N/A,,Mostly Cloudy,170,2013-07-15 03:53:00
10:29 PM,66.2,62.6,88,30.29,10.0,WSW,4.6,-,N/A,,Mostly Cloudy,250,2013-07-15 04:29:00
10:53 PM,64.9,61.0,87,30.10,10.0,WSW,5.8,-,N/A,,Mostly Cloudy,250,2013-07-15 04:53:00
11:53 PM,66.0,59.0,78,30.09,10.0,WNW,5.8,-,N/A,,Overcast,300,2013-07-15 05:53:00